Погода в Силчаре

Индия     24°48′59″N   92°47′49″E
темп.,
°C
ветер,
м/с
пор.,
м/с
влажн.,
%
обл.,
%
осадки,
мм/ч
давл.,
гПа
погр.,
м
26 февраля, пт
пт2623:30+17в23540 0.0 101132
02:30+15всв22590 0.0 100923
05:30+14в22620 0.0 101026
08:30+24юв11360 0.0 1011375
11:30+31зюз34260 0.0 10101682
14:30+34з68190 0.0 10063318
17:30+27сз45330 0.0 100793
20:30+21ю11460 0.0 101023
27 февраля, сб
сб2723:30+18в11560 0.0 101023
02:30+16в23560 0.0 100837
05:30+15в12590 0.0 100923
08:30+25вюв22360 0.0 1010358
11:30+32зюз24230 0.0 10081442
14:30+35зсз57160 0.0 10063233
17:30+27сз45290 0.0 100783
20:30+22всв23400 0.0 101023
28 февраля, вс
вс2823:30+19всв22470 0.0 101023
02:30+17ююв11530 0.0 100923
05:30+16в23540 0.0 101045
08:30+26в11340 0.0 1011358
11:30+32зюз35250 0.0 10101622
14:30+35з58190 0.0 10073519
17:30+28сз34350 0.0 100841
20:30+23вюв23460 0.0 101123
1 марта, пн
пн123:30+19юз12520 0.0 101123
02:30+18в33560 0.0 101046
05:30+16вюв12610 0.0 101123
08:30+27юв11340 0.0 1013374
11:30+33з46230 0.0 10121892
14:30+36з69160 0.0 10093479
17:30+28зюз35260 0.0 101080
20:30+22в12410 0.0 101324
2 марта, вт
вт223:30+19ссв01470 0.0 101323
02:30+17в23510 0.0 101226
05:30+16всв22550 0.0 101226
08:30+27в11300 0.0 1014361
11:30+33з352415 0.0 10121467
14:30+37з6111713 0.0 10094269
17:30+29зсз342815 0.0 100976
20:30+25вюв343932 0.0 101260